Wind_Speed
7 7 7 7 8 9 9 10 10 10 11 11 12 13 13 14 14 15 15 16 16 17 17 17 18 18 19 19 20 20 21 22 22 23 24 24 24 25
9 9 9 10 10 10 11 11 11 12 13 13 14 15 15 15 16 16 17 17 18 18 18 18 18 19 20 21 21 21 21 22 23 23 24 25 25 25
9 10 10 10 11 11 12 13 13 14 14 15 16 16 16 17 17 18 18 19 19 19 20 20 21 21 21 22 22 22 23 24 25 26 26 26 26 27
11 11 11 11 11 12 13 14 14 15 16 17 17 18 18 18 19 19 20 20 20 21 22 22 23 23 24 24 24 25 25 25 26 26 27 27 28 28
11 11 12 12 13 14 15 15 16 17 17 18 18 19 19 20 20 21 21 22 22 23 24 25 25 26 26 27 27 27 27 27 28 28 28 29 30 30
13 13 14 14 15 16 17 17 18 18 19 19 20 20 21 22 22 23 23 24 24 25 26 27 27 28 29 29 29 30 30 30 30 30 31 31 32 32
15 15 16 17 17 18 18 19 19 20 20 21 22 23 23 24 25 25 26 26 27 27 28 29 29 29 30 30 31 31 32 32 32 33 33 34 34 34
17 17 18 18 19 19 20 20 20 21 22 23 24 25 25 26 27 27 28 28 29 29 30 31 31 31 32 32 33 34 34 35 35 35 36 36 37 37
18 18 19 20 20 21 21 22 22 23 24 25 26 26 27 28 28 29 30 30 31 32 33 33 33 34 34 35 36 36 36 37 37 38 38 39 39 40
19 20 21 21 21 21 22 23 23 24 26 27 27 28 28 29 29 30 31 32 33 34 35 35 36 36 36 38 38 38 38 39 39 40 40 41 42 42
20 21 21 21 22 23 24 25 25 26 28 28 29 30 31 31 31 32 33 33 34 35 36 37 37 38 38 39 40 40 41 42 42 42 43 43 44 44
21 21 22 23 23 24 25 26 27 28 29 30 30 31 32 32 33 33 34 35 36 37 38 39 39 39 39 39 40 41 42 43 44 45 45 46 46 47
22 23 23 24 24 25 26 27 28 30 30 31 32 32 33 34 35 35 36 37 38 39 39 40 40 41 41 41 41 42 43 44 45 46 47 48 48 49
23 24 24 25 26 27 28 29 30 30 31 32 33 34 35 35 35 36 36 37 38 38 39 40 41 42 43 43 44 44 45 47 47 48 48 49 49 49
25 25 26 27 28 28 29 30 31 31 32 33 34 35 35 35 35 35 35 36 37 38 39 41 42 43 45 45 45 46 47 47 48 48 48 48 49 49
26 27 28 29 29 30 31 31 32 32 33 34 35 36 36 35 35 36 37 38 38 39 40 41 42 43 44 45 47 47 48 48 47 47 47 47 48 48
27 28 28 29 30 31 31 32 33 34 35 36 36 36 36 36 36 37 38 38 39 40 40 41 42 43 45 46 47 48 48 48 48 47 47 47 47 47
28 28 28 29 30 31 31 32 34 35 36 37 37 37 37 37 37 38 38 40 41 41 42 43 44 45 46 47 49 49 49 48 48 48 48 47 47 48
29 29 29 30 31 31 32 33 34 35 36 37 37 37 37 38 38 39 40 41 41 42 43 45 46 47 47 48 48 49 48 48 48 47 47 48 49 49
29 30 30 31 32 32 33 34 35 37 37 38 38 38 38 39 40 41 42 42 43 44 45 46 47 48 48 48 48 48 47 47 47 47 47 47 48 49
30 31 31 32 33 34 35 36 37 38 38 39 39 39 40 40 41 42 43 43 44 45 46 46 47 48 49 48 47 47 47 47 47 46 46 46 47 47
31 32 32 33 34 35 36 38 38 39 40 40 40 41 41 42 42 43 43 44 45 46 46 47 48 48 48 47 47 46 46 46 45 45 45 45 46 45
32 33 34 35 36 37 38 39 40 41 41 41 41 41 42 42 43 43 44 45 45 46 47 47 47 47 47 46 46 45 45 45 44 44 45 45 45 45
Wind_Direction
290 288 285 285 286 285 283 284 285 287 286 286 287 287 286 283 284 285 283 283 284 284 285 285 284 282 279 279 278 277 276 272 271 271 271 271 273 274
288 286 285 284 285 284 284 285 285 285 286 286 286 286 287 285 286 286 285 285 285 285 285 285 285 285 283 282 280 279 277 274 273 272 272 273 273 275
292 291 289 289 289 288 287 286 287 286 287 287 287 288 287 287 286 286 285 285 285 286 287 287 285 284 284 283 282 280 279 277 275 273 274 274 275 276
294 294 290 289 289 289 289 288 287 287 287 286 287 287 288 288 287 287 287 287 287 287 288 288 286 285 285 285 284 283 281 279 278 277 277 277 277 276
296 294 292 290 289 289 289 289 289 288 287 287 287 287 287 287 286 286 286 286 287 288 288 288 286 286 286 285 285 284 283 281 280 280 279 279 278 278
294 294 292 290 290 289 289 289 289 288 288 289 289 288 288 287 287 287 286 286 287 288 289 289 287 287 286 285 285 284 283 282 282 281 280 281 281 279
291 292 292 292 292 291 290 290 290 289 289 290 289 289 288 288 288 288 288 288 288 289 289 290 288 287 287 287 286 285 284 283 282 282 282 282 281 281
290 291 292 292 292 292 291 291 291 291 291 291 290 290 289 288 288 288 288 288 288 288 289 290 289 288 288 288 287 287 286 284 283 283 282 281 282 282
290 290 291 292 292 291 291 290 291 292 292 292 292 291 291 290 289 289 288 287 288 288 288 290 289 288 289 288 288 287 285 284 283 283 282 282 282 282
291 292 292 292 293 293 292 292 293 294 294 294 293 293 292 291 289 289 288 288 288 288 289 289 289 289 289 289 288 287 286 285 284 284 283 283 282 281
292 293 293 293 293 293 292 292 293 294 295 295 295 294 293 292 290 289 289 289 289 289 290 290 289 288 289 289 288 288 287 286 285 285 284 283 283 282
293 293 293 293 293 293 293 294 294 295 295 295 296 297 296 294 292 291 290 290 290 290 291 291 289 289 289 289 290 289 289 287 286 286 285 284 284 283
294 294 294 294 294 295 296 296 296 296 297 297 298 298 297 296 295 293 292 292 292 292 292 291 290 290 290 291 290 290 289 289 288 287 286 286 285 284
295 295 295 295 296 297 297 297 298 298 298 298 298 299 299 298 297 295 294 294 294 294 293 293 293 292 292 291 291 291 290 290 290 289 288 287 286 285
297 296 296 296 297 297 298 299 299 300 300 300 300 300 300 300 299 297 297 296 296 295 295 295 295 294 294 293 292 292 292 292 291 290 289 287 286 285
296 297 297 297 297 298 299 300 300 301 302 302 302 301 301 300 299 298 298 298 298 298 298 298 297 297 296 295 295 294 294 293 291 290 289 288 286 285
298 298 298 298 298 299 300 300 302 303 303 303 302 301 301 300 300 300 300 299 299 300 299 299 298 298 298 298 297 296 296 294 293 291 289 288 287 286
299 299 299 299 300 301 301 302 303 303 303 303 302 302 301 301 301 301 301 301 300 301 300 299 299 299 299 299 299 298 297 295 294 292 290 289 288 287
299 299 299 300 301 301 302 303 303 304 304 304 303 302 302 302 302 302 302 302 301 301 301 301 300 300 300 300 300 299 298 296 295 293 292 291 289 288
300 301 301 301 301 301 302 303 304 304 305 304 304 303 303 303 303 303 303 303 302 302 302 302 302 302 301 301 301 300 299 297 296 295 293 293 292 291
301 301 301 301 302 302 303 304 305 305 305 305 304 303 303 302 303 304 304 303 303 303 303 303 303 303 303 302 301 300 299 298 298 296 295 294 293 293
301 302 303 303 303 304 304 305 305 306 306 305 305 304 304 303 304 304 304 304 304 304 305 305 305 304 304 304 303 301 300 300 299 298 297 296 295 295
301 302 302 303 303 304 305 305 305 306 306 306 306 305 305 305 305 305 305 305 305 305 305 306 305 305 305 304 304 302 301 301 299 298 298 298 298 297
Height
5864 5863 5862 5862 5861 5860 5859 5859 5858 5857 5856 5855 5854 5853 5851 5850 5849 5848 5847 5846 5845 5843 5842 5841 5839 5837 5836 5835 5833 5832 5830 5829 5829 5829 5829 5828 5828 5827
5862 5861 5860 5859 5858 5858 5857 5856 5855 5854 5853 5852 5851 5849 5848 5847 5846 5844 5843 5842 5841 5839 5838 5837 5835 5833 5832 5830 5829 5827 5825 5824 5824 5823 5823 5822 5822 5821
5860 5859 5858 5857 5856 5855 5854 5853 5852 5851 5850 5849 5847 5846 5845 5843 5842 5840 5839 5838 5836 5835 5833 5832 5831 5829 5827 5825 5824 5822 5820 5819 5818 5817 5816 5816 5815 5814
5857 5856 5855 5854 5853 5852 5851 5850 5848 5847 5846 5845 5843 5842 5840 5839 5838 5836 5835 5833 5831 5830 5828 5827 5825 5823 5822 5820 5818 5817 5815 5814 5812 5811 5810 5809 5808 5807
5854 5853 5852 5851 5850 5848 5847 5846 5844 5843 5842 5840 5839 5837 5836 5834 5833 5831 5829 5828 5826 5824 5823 5821 5819 5817 5815 5814 5812 5810 5809 5807 5806 5804 5803 5801 5800 5799
5851 5850 5848 5847 5846 5844 5843 5841 5840 5838 5837 5835 5834 5832 5830 5829 5827 5825 5824 5822 5820 5818 5816 5814 5812 5810 5808 5806 5805 5803 5801 5800 5798 5796 5795 5793 5791 5790
5847 5846 5844 5843 5841 5840 5838 5837 5835 5833 5831 5830 5828 5826 5824 5822 5821 5819 5817 5815 5813 5811 5809 5806 5804 5802 5800 5798 5796 5794 5793 5791 5789 5787 5785 5784 5782 5780
5843 5841 5840 5838 5836 5834 5833 5831 5829 5827 5825 5823 5821 5820 5818 5816 5814 5812 5810 5808 5806 5804 5801 5798 5796 5794 5791 5789 5787 5785 5783 5781 5779 5777 5775 5773 5772 5770
5838 5836 5835 5833 5831 5829 5827 5825 5823 5821 5819 5817 5814 5812 5810 5808 5806 5804 5802 5799 5797 5795 5792 5790 5787 5784 5782 5780 5777 5775 5773 5770 5768 5766 5764 5762 5760 5758
5833 5831 5829 5827 5825 5823 5821 5819 5816 5814 5812 5809 5807 5804 5802 5799 5797 5795 5793 5791 5788 5785 5783 5780 5777 5775 5772 5769 5766 5764 5761 5759 5756 5754 5752 5750 5747 5745
5827 5825 5823 5821 5819 5816 5814 5812 5810 5807 5804 5801 5799 5796 5793 5790 5788 5786 5783 5781 5778 5776 5772 5770 5767 5764 5761 5758 5754 5751 5749 5746 5743 5741 5739 5736 5734 5731
5821 5819 5817 5815 5813 5810 5807 5805 5802 5799 5796 5793 5790 5787 5784 5781 5778 5775 5773 5770 5768 5765 5762 5758 5755 5752 5749 5746 5742 5739 5736 5732 5730 5727 5724 5722 5719 5716
5815 5813 5811 5808 5806 5803 5800 5797 5794 5791 5788 5785 5781 5778 5774 5771 5768 5765 5762 5759 5756 5753 5750 5747 5743 5739 5736 5734 5730 5726 5722 5719 5715 5712 5709 5706 5703 5700
5809 5807 5804 5802 5799 5796 5793 5789 5786 5783 5779 5776 5772 5769 5765 5761 5758 5754 5751 5748 5745 5741 5738 5734 5731 5727 5724 5720 5717 5713 5709 5704 5701 5697 5693 5690 5687 5684
5802 5800 5797 5794 5791 5788 5785 5781 5778 5774 5771 5767 5763 5759 5755 5752 5748 5744 5741 5737 5734 5730 5726 5722 5719 5714 5710 5706 5702 5698 5694 5690 5685 5681 5677 5674 5670 5668
5795 5792 5790 5787 5784 5780 5777 5773 5770 5766 5762 5758 5754 5750 5746 5742 5738 5735 5731 5727 5723 5719 5715 5710 5706 5702 5697 5692 5688 5683 5679 5675 5671 5666 5662 5658 5655 5651
5788 5785 5782 5779 5776 5773 5769 5765 5761 5757 5753 5749 5745 5741 5736 5732 5729 5724 5720 5716 5712 5707 5703 5698 5694 5689 5684 5679 5674 5669 5664 5659 5655 5650 5647 5643 5640 5636
5781 5777 5774 5771 5768 5764 5761 5757 5753 5748 5744 5740 5735 5731 5727 5723 5718 5714 5710 5705 5700 5696 5691 5687 5682 5677 5672 5666 5660 5654 5649 5644 5640 5635 5631 5628 5625 5621
5773 5770 5766 5763 5760 5756 5752 5748 5744 5740 5735 5730 5726 5721 5717 5712 5708 5703 5698 5693 5688 5684 5679 5674 5669 5663 5658 5653 5647 5640 5634 5630 5625 5621 5616 5612 5609 5605
5765 5761 5758 5755 5751 5747 5743 5739 5735 5730 5725 5721 5716 5711 5706 5701 5697 5692 5687 5681 5676 5671 5666 5660 5655 5649 5643 5638 5633 5626 5620 5615 5610 5606 5601 5597 5593 5589
5756 5753 5749 5746 5742 5738 5734 5730 5725 5720 5715 5710 5706 5701 5696 5691 5685 5680 5675 5670 5664 5659 5653 5647 5641 5635 5629 5623 5618 5613 5606 5600 5595 5591 5586 5582 5578 5573
5748 5744 5741 5737 5733 5729 5724 5720 5715 5710 5705 5700 5695 5690 5684 5679 5674 5668 5663 5658 5652 5646 5640 5634 5628 5622 5615 5609 5604 5598 5593 5587 5582 5576 5571 5567 5562 5558
5739 5735 5732 5728 5723 5719 5714 5710 5705 5700 5694 5689 5683 5678 5673 5668 5662 5656 5651 5645 5639 5633 5627 5621 5615 5608 5602 5596 5590 5585 5579 5574 5569 5564 5559 5553 5548 5544